Simultaneous Nadir Overpasses (SNOs) Predictions

Prediction of SNOs between LANDSAT-8 and NOAA-19 Satellite Orbit:

Table of predicted SNOs for the next 14.0 days since TLE Epoch: 11/17/2016
Index Date (LANDSAT-8) Time (LANDSAT-8) Lat,Lon (LANDSAT-8) SZA (LANDSAT-8 ) Date (NOAA-19) Time (NOAA-19) Lat,Lon (NOAA-19) SZA (NOAA-19 ) Distance(km) Time Diff (sec)
1 11/18/2016 13:38:47 75.39, -18.15 94.93 11/18/2016 13:38:13 75.37, -18.24 94.90 3.39 34
2 11/18/2016 14:28:16 -75.31, 149.27 85.16 11/18/2016 14:29:07 -75.32, 149.19 85.14 2.32 51
3 11/20/2016 19:12:32 -75.39, 78.43 84.57 11/20/2016 19:12:05 -75.38, 78.29 84.59 3.99 27
4 11/20/2016 20:02:00 75.27,-114.26 95.31 11/20/2016 20:03:09 75.27,-114.13 95.33 3.71 69
5 11/23/2016 00:46:16 75.35, 174.88 95.86 11/23/2016 00:46:07 75.36, 174.91 95.87 1.68 9
6 11/23/2016 01:35:47 -75.18, -17.95 84.33 11/23/2016 01:36:59 -75.19, -17.27 84.28 19.41 72
7 11/25/2016 05:30:22 75.92, 105.46 96.92 11/25/2016 05:29:17 76.00, 102.06 96.87 92.26 65
8 11/25/2016 06:20:01 -75.35, -88.55 83.70 11/25/2016 06:19:59 -75.36, -88.48 83.70 1.81 2
9 11/27/2016 11:04:14 -75.57,-158.99 83.06 11/27/2016 11:03:02 -75.66,-160.16 83.03 33.61 72
10 11/27/2016 11:53:44 75.35, 8.01 96.70 11/27/2016 11:54:01 75.38, 7.99 96.74 3.42 17
11 11/29/2016 16:38:00 75.42, -62.87 97.14 11/29/2016 16:36:58 75.44, -62.87 97.15 2.21 62
12 11/29/2016 17:27:29 -75.35, 104.58 82.93 11/29/2016 17:27:54 -75.38, 104.57 82.89 3.46 25




NCC Satellite Simultaneous Nadir Overpasses (SNOs) Prediction Service
